Time,TemperatureF,DewpointF,PressureIn,WindDirection,WindDirectionDegrees,WindSpeedMPH,WindSpeedGustMPH,Humidity,HourlyPrecipIn,Conditions,Clouds,dailyrainin,SoftwareType,DateUTC
2013-01-03 00:04:00,46.6,32.0,30.04,East,90,0.0,0.0,53,0.00,,---,0.00,cosweather0.1e,2013-01-03 08:04:00,
2013-01-03 00:09:00,46.6,32.0,30.04,East,90,0.0,0.0,53,0.00,,---,0.00,cosweather0.1e,2013-01-03 08:09:00,
2013-01-03 00:14:00,46.4,32.0,30.04,East,88,0.0,0.0,53,0.00,,---,0.00,cosweather0.1e,2013-01-03 08:14:00,
2013-01-03 00:19:00,46.2,32.0,30.04,ENE,78,0.0,0.0,54,0.00,,---,0.00,cosweather0.1e,2013-01-03 08:19:00,
2013-01-03 00:24:00,46.2,32.0,30.04,East,79,0.0,0.0,54,0.00,,---,0.00,cosweather0.1e,2013-01-03 08:24:00,
2013-01-03 00:29:00,46.4,32.0,30.04,ENE,78,0.0,0.0,54,0.00,,---,0.00,cosweather0.1e,2013-01-03 08:29:00,
2013-01-03 00:34:00,46.4,32.0,30.04,NNE,23,0.0,0.0,54,0.00,,---,0.00,cosweather0.1e,2013-01-03 08:34:00,
2013-01-03 00:39:00,46.2,32.0,30.04,NNE,22,0.0,0.0,54,0.00,,---,0.00,cosweather0.1e,2013-01-03 08:39:00,
2013-01-03 00:44:00,46.2,32.0,30.08,NNE,23,0.0,0.0,54,0.00,,---,0.00,cosweather0.1e,2013-01-03 08:44:00,
2013-01-03 00:49:00,46.2,32.0,30.08,NNE,17,0.0,0.0,54,0.00,,---,0.00,cosweather0.1e,2013-01-03 08:49:00,
2013-01-03 00:54:00,46.0,32.0,30.08,North,8,0.0,0.0,54,0.00,,---,0.00,cosweather0.1e,2013-01-03 08:54:00,
2013-01-03 00:59:00,46.0,32.0,30.08,North,8,0.0,0.0,54,0.00,,---,0.00,cosweather0.1e,2013-01-03 08:59:00,
2013-01-03 01:05:00,46.0,32.0,30.08,North,8,0.0,0.0,54,0.00,,---,0.00,cosweather0.1e,2013-01-03 09:05:00,
2013-01-03 01:10:00,46.0,32.0,30.08,North,8,0.0,0.0,54,0.00,,---,0.00,cosweather0.1e,2013-01-03 09:10:00,
2013-01-03 01:15:00,46.0,32.0,30.04,North,8,0.0,0.0,54,0.00,,---,0.00,cosweather0.1e,2013-01-03 09:15:00,
2013-01-03 01:20:00,45.9,32.0,30.04,North,8,0.0,0.0,54,0.00,,---,0.00,cosweather0.1e,2013-01-03 09:20:00,
2013-01-03 01:25:00,45.5,32.0,30.04,North,8,0.0,0.0,54,0.00,,---,0.00,cosweather0.1e,2013-01-03 09:25:00,
2013-01-03 01:30:00,45.5,32.0,30.04,North,8,0.0,0.0,54,0.00,,---,0.00,cosweather0.1e,2013-01-03 09:30:00,
2013-01-03 01:35:00,45.5,32.0,30.04,North,8,0.0,0.0,54,0.00,,---,0.00,cosweather0.1e,2013-01-03 09:35:00,
2013-01-03 01:40:00,45.5,32.0,30.04,North,8,0.0,0.0,54,0.00,,---,0.00,cosweather0.1e,2013-01-03 09:40:00,
2013-01-03 01:45:00,45.7,32.0,30.08,North,357,0.0,0.0,54,0.00,,---,0.00,cosweather0.1e,2013-01-03 09:45:00,
2013-01-03 01:50:00,45.5,32.0,30.08,North,357,0.0,0.0,54,0.00,,---,0.00,cosweather0.1e,2013-01-03 09:50:00,
2013-01-03 01:55:00,45.1,32.0,30.08,North,357,0.0,0.0,54,0.00,,---,0.00,cosweather0.1e,2013-01-03 09:55:00,
2013-01-03 02:00:00,45.0,32.0,30.08,North,357,0.0,0.0,54,0.00,,---,0.00,cosweather0.1e,2013-01-03 10:00:00,
2013-01-03 02:05:00,44.8,32.0,30.08,North,357,0.0,0.0,54,0.00,,---,0.00,cosweather0.1e,2013-01-03 10:05:00,
2013-01-03 02:10:00,44.8,32.0,30.08,North,357,0.0,0.0,55,0.00,,---,0.00,cosweather0.1e,2013-01-03 10:10:00,
2013-01-03 02:15:00,44.8,32.0,30.08,North,2,0.0,0.0,55,0.00,,---,0.00,cosweather0.1e,2013-01-03 10:15:00,
2013-01-03 02:20:00,44.6,32.0,30.08,North,2,0.0,0.0,56,0.00,,---,0.00,cosweather0.1e,2013-01-03 10:20:00,
2013-01-03 02:25:00,44.6,32.0,30.08,North,2,0.0,0.0,56,0.00,,---,0.00,cosweather0.1e,2013-01-03 10:25:00,
2013-01-03 02:30:00,44.8,32.0,30.08,North,2,0.0,0.0,56,0.00,,---,0.00,cosweather0.1e,2013-01-03 10:30:00,
2013-01-03 02:35:00,44.8,32.0,30.08,North,2,0.0,0.0,56,0.00,,---,0.00,cosweather0.1e,2013-01-03 10:35:00,
2013-01-03 02:41:00,44.8,32.0,30.08,North,2,0.0,0.0,56,0.00,,---,0.00,cosweather0.1e,2013-01-03 10:41:00,
2013-01-03 02:46:00,44.8,32.0,30.08,North,2,0.0,0.0,56,0.00,,---,0.00,cosweather0.1e,2013-01-03 10:46:00,
2013-01-03 02:51:00,44.8,32.0,30.08,North,5,0.0,0.0,56,0.00,,---,0.00,cosweather0.1e,2013-01-03 10:51:00,
2013-01-03 02:56:00,44.8,32.0,30.08,North,4,0.0,0.0,56,0.00,,---,0.00,cosweather0.1e,2013-01-03 10:56:00,
2013-01-03 03:01:00,44.6,32.0,30.04,North,5,0.0,0.0,56,0.00,,---,0.00,cosweather0.1e,2013-01-03 11:01:00,
2013-01-03 03:06:00,44.6,32.0,30.04,North,5,0.0,0.0,56,0.00,,---,0.00,cosweather0.1e,2013-01-03 11:06:00,
2013-01-03 03:11:00,44.8,32.0,30.04,North,4,0.0,0.0,57,0.00,,---,0.00,cosweather0.1e,2013-01-03 11:11:00,
2013-01-03 03:16:00,44.8,32.0,30.04,North,5,0.0,0.0,57,0.00,,---,0.00,cosweather0.1e,2013-01-03 11:16:00,
2013-01-03 03:21:00,44.6,32.0,30.04,North,5,0.0,0.0,56,0.00,,---,0.00,cosweather0.1e,2013-01-03 11:21:00,
2013-01-03 03:26:00,44.6,32.0,30.04,North,5,0.0,0.0,57,0.00,,---,0.00,cosweather0.1e,2013-01-03 11:26:00,
2013-01-03 03:31:00,44.4,32.0,30.04,North,357,0.0,0.0,57,0.00,,---,0.00,cosweather0.1e,2013-01-03 11:31:00,
2013-01-03 03:36:00,44.2,32.0,30.04,North,357,0.0,0.0,57,0.00,,---,0.00,cosweather0.1e,2013-01-03 11:36:00,
2013-01-03 03:41:00,44.1,32.0,30.04,North,1,0.0,0.0,57,0.00,,---,0.00,cosweather0.1e,2013-01-03 11:41:00,
2013-01-03 03:46:00,43.9,32.0,30.04,North,1,0.0,0.0,58,0.00,,---,0.00,cosweather0.1e,2013-01-03 11:46:00,
2013-01-03 03:51:00,43.9,32.0,30.04,North,2,0.0,0.0,58,0.00,,---,0.00,cosweather0.1e,2013-01-03 11:51:00,
2013-01-03 03:57:00,43.7,32.0,30.04,NNE,13,0.0,0.0,58,0.00,,---,0.00,cosweather0.1e,2013-01-03 11:57:00,
2013-01-03 04:02:00,43.9,32.0,30.04,NNE,13,0.0,0.0,59,0.00,,---,0.00,cosweather0.1e,2013-01-03 12:02:00,
2013-01-03 04:07:00,44.1,32.0,30.04,NNE,13,0.0,0.0,59,0.00,,---,0.00,cosweather0.1e,2013-01-03 12:07:00,
2013-01-03 04:12:00,43.9,32.0,30.04,NNE,16,0.0,0.0,59,0.00,,---,0.00,cosweather0.1e,2013-01-03 12:12:00,
2013-01-03 04:17:00,43.7,32.0,30.04,East,84,0.0,0.0,59,0.00,,---,0.00,cosweather0.1e,2013-01-03 12:17:00,
2013-01-03 04:22:00,43.5,32.0,30.04,East,85,0.0,0.0,59,0.00,,---,0.00,cosweather0.1e,2013-01-03 12:22:00,
2013-01-03 04:27:00,43.5,32.0,30.04,East,85,0.0,0.0,59,0.00,,---,0.00,cosweather0.1e,2013-01-03 12:27:00,
2013-01-03 04:32:00,43.5,32.0,30.04,NNE,12,0.0,0.0,60,0.00,,---,0.00,cosweather0.1e,2013-01-03 12:32:00,
2013-01-03 04:37:00,43.5,32.0,30.04,NNE,12,0.0,0.0,60,0.00,,---,0.00,cosweather0.1e,2013-01-03 12:37:00,
2013-01-03 04:42:00,43.3,32.0,30.04,NNE,12,0.0,0.0,60,0.00,,---,0.00,cosweather0.1e,2013-01-03 12:42:00,
2013-01-03 04:47:00,43.3,32.0,30.04,NNE,12,0.0,0.0,60,0.00,,---,0.00,cosweather0.1e,2013-01-03 12:47:00,
2013-01-03 04:52:00,43.5,32.0,30.04,NNE,12,0.0,0.0,60,0.00,,---,0.00,cosweather0.1e,2013-01-03 12:52:00,
2013-01-03 04:57:00,43.5,32.0,30.04,NNE,12,0.0,0.0,60,0.00,,---,0.00,cosweather0.1e,2013-01-03 12:57:00,
2013-01-03 05:02:00,43.5,32.0,30.04,NNE,12,0.0,0.0,60,0.00,,---,0.00,cosweather0.1e,2013-01-03 13:02:00,
2013-01-03 05:07:00,43.5,32.0,30.04,NNE,12,0.0,0.0,60,0.00,,---,0.00,cosweather0.1e,2013-01-03 13:07:00,
2013-01-03 05:12:00,43.5,32.0,30.04,NNE,12,0.0,0.0,60,0.00,,---,0.00,cosweather0.1e,2013-01-03 13:12:00,
2013-01-03 05:17:00,43.3,32.0,30.04,NNE,12,0.0,0.0,60,0.00,,---,0.00,cosweather0.1e,2013-01-03 13:17:00,
2013-01-03 05:22:00,43.3,32.0,30.04,NNE,12,0.0,0.0,60,0.00,,---,0.00,cosweather0.1e,2013-01-03 13:22:00,
2013-01-03 05:27:00,43.0,32.0,30.04,NNE,12,0.0,0.0,60,0.00,,---,0.00,cosweather0.1e,2013-01-03 13:27:00,
2013-01-03 05:32:00,43.0,32.0,30.08,NNE,12,0.0,0.0,60,0.00,,---,0.00,cosweather0.1e,2013-01-03 13:32:00,
2013-01-03 05:37:00,42.8,32.0,30.08,NE,39,0.0,0.0,60,0.00,,---,0.00,cosweather0.1e,2013-01-03 13:37:00,
2013-01-03 05:42:00,42.6,32.0,30.08,NE,39,0.0,0.0,61,0.00,,---,0.00,cosweather0.1e,2013-01-03 13:42:00,
2013-01-03 05:47:00,42.8,32.0,30.08,NE,39,0.0,0.0,61,0.00,,---,0.00,cosweather0.1e,2013-01-03 13:47:00,
2013-01-03 05:52:00,42.8,32.0,30.08,NE,39,0.0,0.0,61,0.00,,---,0.00,cosweather0.1e,2013-01-03 13:52:00,
2013-01-03 05:57:00,42.4,32.0,30.08,NE,39,0.0,0.0,61,0.00,,---,0.00,cosweather0.1e,2013-01-03 13:57:00,
2013-01-03 06:02:00,42.4,32.0,30.08,NE,39,0.0,0.0,61,0.00,,---,0.00,cosweather0.1e,2013-01-03 14:02:00,
2013-01-03 06:07:00,42.6,32.0,30.08,NNE,17,0.0,0.0,62,0.00,,---,0.00,cosweather0.1e,2013-01-03 14:07:00,
2013-01-03 06:12:00,42.6,32.0,30.08,NNE,17,0.0,0.0,62,0.00,,---,0.00,cosweather0.1e,2013-01-03 14:12:00,
2013-01-03 06:17:00,42.4,32.0,30.08,NNE,17,0.0,0.0,62,0.00,,---,0.00,cosweather0.1e,2013-01-03 14:17:00,
2013-01-03 06:22:00,42.6,32.0,30.08,NNE,17,0.0,0.0,62,0.00,,---,0.00,cosweather0.1e,2013-01-03 14:22:00,
2013-01-03 06:27:00,42.6,32.0,30.08,NNE,17,0.0,0.0,63,0.00,,---,0.00,cosweather0.1e,2013-01-03 14:27:00,
2013-01-03 06:32:00,42.6,32.0,30.08,NNE,15,0.0,0.0,63,0.00,,---,0.00,cosweather0.1e,2013-01-03 14:32:00,
2013-01-03 06:37:00,42.8,32.0,30.08,NNE,15,0.0,0.0,62,0.00,,---,0.00,cosweather0.1e,2013-01-03 14:37:00,
2013-01-03 06:42:00,42.8,32.0,30.08,NNE,15,0.0,0.0,63,0.00,,---,0.00,cosweather0.1e,2013-01-03 14:42:00,
2013-01-03 06:47:00,42.8,32.0,30.08,NNE,15,0.0,0.0,63,0.00,,---,0.00,cosweather0.1e,2013-01-03 14:47:00,
2013-01-03 06:52:00,42.4,32.0,30.08,NNE,15,0.0,0.0,63,0.00,,---,0.00,cosweather0.1e,2013-01-03 14:52:00,
2013-01-03 06:57:00,42.6,32.0,30.08,NNE,15,0.0,0.0,63,0.00,,---,0.00,cosweather0.1e,2013-01-03 14:57:00,
2013-01-03 07:02:00,42.6,32.0,30.08,North,0,0.0,0.0,63,0.00,,---,0.00,cosweather0.1e,2013-01-03 15:02:00,
2013-01-03 07:07:00,42.6,32.0,30.08,North,353,0.0,0.0,63,0.00,,---,0.00,cosweather0.1e,2013-01-03 15:07:00,
2013-01-03 07:12:00,42.6,32.0,30.08,North,353,0.0,0.0,63,0.00,,---,0.00,cosweather0.1e,2013-01-03 15:12:00,
2013-01-03 07:17:00,42.4,32.0,30.08,North,353,0.0,0.0,63,0.00,,---,0.00,cosweather0.1e,2013-01-03 15:17:00,
2013-01-03 07:22:00,42.3,32.0,30.08,North,0,0.0,0.0,63,0.00,,---,0.00,cosweather0.1e,2013-01-03 15:22:00,
2013-01-03 07:27:00,42.3,32.0,30.08,NNE,21,0.0,0.0,63,0.00,,---,0.00,cosweather0.1e,2013-01-03 15:27:00,
2013-01-03 07:32:00,42.4,32.0,30.08,NNE,21,0.0,0.0,63,0.00,,---,0.00,cosweather0.1e,2013-01-03 15:32:00,
2013-01-03 07:38:00,42.4,32.0,30.08,NNE,21,0.0,0.0,63,0.00,,---,0.00,cosweather0.1e,2013-01-03 15:38:00,
2013-01-03 07:43:00,42.1,32.0,30.08,NNE,20,0.0,0.0,63,0.00,,---,0.00,cosweather0.1e,2013-01-03 15:43:00,
2013-01-03 07:48:00,41.7,32.0,30.08,NNE,20,0.0,0.0,63,0.00,,---,0.00,cosweather0.1e,2013-01-03 15:48:00,
2013-01-03 07:53:00,41.5,32.0,30.08,NNE,21,0.0,0.0,64,0.00,,---,0.00,cosweather0.1e,2013-01-03 15:53:00,
2013-01-03 07:58:00,41.4,32.0,30.08,North,353,0.0,0.0,64,0.00,,---,0.00,cosweather0.1e,2013-01-03 15:58:00,
2013-01-03 08:03:00,41.4,32.0,30.12,NNE,23,0.0,4.0,65,0.00,,---,0.00,cosweather0.1e,2013-01-03 16:03:00,
2013-01-03 08:08:00,41.2,32.0,30.12,NNE,30,0.0,2.2,66,0.00,,---,0.00,cosweather0.1e,2013-01-03 16:08:00,
2013-01-03 08:13:00,41.5,32.0,30.12,NNE,30,0.0,0.0,67,0.00,,---,0.00,cosweather0.1e,2013-01-03 16:13:00,
2013-01-03 08:18:00,41.9,33.8,30.12,North,357,0.0,0.0,68,0.00,,---,0.00,cosweather0.1e,2013-01-03 16:18:00,
2013-01-03 08:23:00,42.3,33.8,30.12,North,3,0.0,0.0,68,0.00,,---,0.00,cosweather0.1e,2013-01-03 16:23:00,
2013-01-03 08:28:00,42.6,33.8,30.12,NNE,23,0.0,2.2,68,0.00,,---,0.00,cosweather0.1e,2013-01-03 16:28:00,
2013-01-03 08:33:00,43.0,33.8,30.12,NNE,32,0.0,0.0,68,0.00,,---,0.00,cosweather0.1e,2013-01-03 16:33:00,
2013-01-03 08:38:00,43.5,33.8,30.12,NNE,31,0.0,0.0,69,0.00,,---,0.00,cosweather0.1e,2013-01-03 16:38:00,
2013-01-03 08:43:00,43.9,35.6,30.12,South,177,0.0,4.9,69,0.00,,---,0.00,cosweather0.1e,2013-01-03 16:43:00,
2013-01-03 08:48:00,43.9,35.6,30.12,SSW,202,0.0,4.0,69,0.00,,---,0.00,cosweather0.1e,2013-01-03 16:48:00,
2013-01-03 08:53:00,43.5,33.8,30.12,South,178,0.0,3.1,70,0.00,,---,0.00,cosweather0.1e,2013-01-03 16:53:00,
2013-01-03 08:58:00,43.5,33.8,30.12,SSW,200,0.0,2.7,70,0.00,,---,0.00,cosweather0.1e,2013-01-03 16:58:00,
2013-01-03 09:03:00,43.7,35.6,30.12,SSW,197,0.0,0.0,70,0.00,,---,0.00,cosweather0.1e,2013-01-03 17:03:00,
2013-01-03 09:08:00,43.9,35.6,30.12,SSW,197,0.0,0.0,69,0.00,,---,0.00,cosweather0.1e,2013-01-03 17:08:00,
2013-01-03 09:13:00,44.2,35.6,30.12,SSW,197,0.0,0.0,69,0.00,,---,0.00,cosweather0.1e,2013-01-03 17:13:00,
2013-01-03 09:18:00,44.6,35.6,30.12,SSW,196,0.0,0.0,69,0.00,,---,0.00,cosweather0.1e,2013-01-03 17:18:00,
2013-01-03 09:23:00,45.0,35.6,30.12,SW,215,0.0,0.0,69,0.00,,---,0.00,cosweather0.1e,2013-01-03 17:23:00,
2013-01-03 09:28:00,45.3,35.6,30.12,WSW,250,0.0,0.0,69,0.00,,---,0.00,cosweather0.1e,2013-01-03 17:28:00,
2013-01-03 09:33:00,45.7,37.4,30.12,WSW,241,0.0,0.0,69,0.00,,---,0.00,cosweather0.1e,2013-01-03 17:33:00,
2013-01-03 09:38:00,46.0,37.4,30.12,WSW,240,0.0,0.0,69,0.00,,---,0.00,cosweather0.1e,2013-01-03 17:38:00,
2013-01-03 09:43:00,46.2,37.4,30.12,SSW,199,0.0,0.0,69,0.00,,---,0.00,cosweather0.1e,2013-01-03 17:43:00,
2013-01-03 09:48:00,46.6,35.6,30.16,South,191,0.0,0.0,68,0.00,,---,0.00,cosweather0.1e,2013-01-03 17:48:00,
2013-01-03 09:53:00,46.8,35.6,30.16,WSW,245,0.0,2.2,68,0.00,,---,0.00,cosweather0.1e,2013-01-03 17:53:00,
2013-01-03 09:58:00,46.9,35.6,30.16,WSW,253,0.0,2.7,68,0.00,,---,0.00,cosweather0.1e,2013-01-03 17:58:00,
2013-01-03 10:03:00,47.1,35.6,30.16,WNW,292,0.0,2.2,68,0.00,,---,0.00,cosweather0.1e,2013-01-03 18:03:00,
2013-01-03 10:08:00,47.5,37.4,30.16,West,271,0.0,0.0,68,0.00,,---,0.00,cosweather0.1e,2013-01-03 18:08:00,
2013-01-03 10:13:00,47.7,37.4,30.16,West,271,0.0,0.0,67,0.00,,---,0.00,cosweather0.1e,2013-01-03 18:13:00,
2013-01-03 10:18:00,47.8,37.4,30.16,West,271,0.0,0.0,67,0.00,,---,0.00,cosweather0.1e,2013-01-03 18:18:00,
2013-01-03 10:23:00,48.0,37.4,30.16,WNW,290,0.0,0.0,67,0.00,,---,0.00,cosweather0.1e,2013-01-03 18:23:00,
2013-01-03 10:29:00,48.2,37.4,30.16,West,279,0.0,3.1,66,0.00,,---,0.00,cosweather0.1e,2013-01-03 18:29:00,
2013-01-03 10:34:00,48.2,37.4,30.16,NW,306,0.0,0.0,66,0.00,,---,0.00,cosweather0.1e,2013-01-03 18:34:00,
2013-01-03 10:39:00,48.4,37.4,30.16,WNW,298,0.0,4.0,66,0.00,,---,0.00,cosweather0.1e,2013-01-03 18:39:00,
2013-01-03 10:44:00,48.4,37.4,30.16,WNW,300,0.0,2.2,65,0.00,,---,0.00,cosweather0.1e,2013-01-03 18:44:00,
2013-01-03 10:49:00,48.6,37.4,30.16,WNW,301,0.0,3.6,65,0.00,,---,0.00,cosweather0.1e,2013-01-03 18:49:00,
2013-01-03 10:54:00,48.7,37.4,30.16,NW,312,0.0,0.0,65,0.00,,---,0.00,cosweather0.1e,2013-01-03 18:54:00,
2013-01-03 10:59:00,48.7,37.4,30.16,NW,306,0.0,0.0,65,0.00,,---,0.00,cosweather0.1e,2013-01-03 18:59:00,
2013-01-03 11:04:00,49.1,39.2,30.12,West,273,0.0,3.1,65,0.00,,---,0.00,cosweather0.1e,2013-01-03 19:04:00,
2013-01-03 11:09:00,49.6,39.2,30.12,WSW,250,0.0,0.0,65,0.00,,---,0.00,cosweather0.1e,2013-01-03 19:09:00,
2013-01-03 11:14:00,50.2,39.2,30.12,WNW,301,0.0,3.1,64,0.00,,---,0.00,cosweather0.1e,2013-01-03 19:14:00,
2013-01-03 11:56:00,54.5,39.2,30.12,NW,307,0.0,3.1,55,0.00,,---,0.00,cosweather0.1e,2013-01-03 19:56:00,
2013-01-03 12:01:00,55.2,39.2,30.12,WNW,303,0.0,2.2,54,0.00,,---,0.00,cosweather0.1e,2013-01-03 20:01:00,
2013-01-03 12:06:00,55.9,39.2,30.12,WSW,258,0.0,2.7,53,0.00,,---,0.00,cosweather0.1e,2013-01-03 20:06:00,
2013-01-03 12:11:00,56.3,39.2,30.12,WNW,289,0.0,0.0,52,0.00,,---,0.00,cosweather0.1e,2013-01-03 20:11:00,
2013-01-03 12:16:00,56.5,37.4,30.12,West,278,0.0,2.7,48,0.00,,---,0.00,cosweather0.1e,2013-01-03 20:16:00,
2013-01-03 12:21:00,56.8,37.4,30.12,WNW,303,0.0,3.1,49,0.00,,---,0.00,cosweather0.1e,2013-01-03 20:21:00,
2013-01-03 12:26:00,57.4,37.4,30.12,SW,214,0.0,3.1,49,0.00,,---,0.00,cosweather0.1e,2013-01-03 20:26:00,
2013-01-03 12:31:00,57.9,37.4,30.12,NW,305,0.0,4.9,48,0.00,,---,0.00,cosweather0.1e,2013-01-03 20:31:00,
2013-01-03 12:36:00,58.1,37.4,30.12,WSW,252,0.0,2.7,46,0.00,,---,0.00,cosweather0.1e,2013-01-03 20:36:00,
2013-01-03 12:42:00,58.6,39.2,30.12,NW,320,0.0,4.9,47,0.00,,---,0.00,cosweather0.1e,2013-01-03 20:42:00,
2013-01-03 12:47:00,58.8,37.4,30.12,WSW,246,0.0,2.2,46,0.00,,---,0.00,cosweather0.1e,2013-01-03 20:47:00,
2013-01-03 12:52:00,59.2,37.4,30.12,SW,224,0.0,0.0,45,0.00,,---,0.00,cosweather0.1e,2013-01-03 20:52:00,
2013-01-03 12:57:00,59.7,37.4,30.12,West,271,0.0,3.6,43,0.00,,---,0.00,cosweather0.1e,2013-01-03 20:57:00,
2013-01-03 13:02:00,59.9,39.2,30.12,West,278,0.0,0.0,43,0.00,,---,0.00,cosweather0.1e,2013-01-03 21:02:00,
2013-01-03 13:07:00,60.1,37.4,30.12,SSW,212,0.0,3.6,41,0.00,,---,0.00,cosweather0.1e,2013-01-03 21:07:00,
2013-01-03 13:12:00,60.4,35.6,30.12,SSW,212,0.0,3.6,38,0.00,,---,0.00,cosweather0.1e,2013-01-03 21:12:00,
2013-01-03 13:17:00,60.8,35.6,30.08,West,277,0.0,5.8,38,0.00,,---,0.00,cosweather0.1e,2013-01-03 21:17:00,
2013-01-03 13:22:00,61.3,35.6,30.08,South,186,0.0,2.7,38,0.00,,---,0.00,cosweather0.1e,2013-01-03 21:22:00,
2013-01-03 13:27:00,61.0,33.8,30.08,WSW,240,0.0,3.6,37,0.00,,---,0.00,cosweather0.1e,2013-01-03 21:27:00,
2013-01-03 13:32:00,61.5,35.6,30.12,WNW,292,0.0,0.0,38,0.00,,---,0.00,cosweather0.1e,2013-01-03 21:32:00,
2013-01-03 13:37:00,61.9,37.4,30.12,NW,307,0.0,4.0,39,0.00,,---,0.00,cosweather0.1e,2013-01-03 21:37:00,
2013-01-03 13:43:00,62.2,37.4,30.12,North,0,0.0,4.0,38,0.00,,---,0.00,cosweather0.1e,2013-01-03 21:43:00,
2013-01-03 13:48:00,62.1,37.4,30.08,NE,55,0.0,2.7,38,0.00,,---,0.00,cosweather0.1e,2013-01-03 21:48:00,
2013-01-03 13:53:00,62.1,37.4,30.08,SW,229,0.0,3.1,38,0.00,,---,0.00,cosweather0.1e,2013-01-03 21:53:00,
2013-01-03 13:58:00,62.4,35.6,30.08,South,191,0.0,0.0,37,0.00,,---,0.00,cosweather0.1e,2013-01-03 21:58:00,
2013-01-03 14:03:00,62.6,33.8,30.08,South,190,0.0,3.1,35,0.00,,---,0.00,cosweather0.1e,2013-01-03 22:03:00,
2013-01-03 14:08:00,62.8,35.6,30.08,South,182,0.0,2.7,36,0.00,,---,0.00,cosweather0.1e,2013-01-03 22:08:00,
2013-01-03 14:13:00,63.1,35.6,30.08,SSW,203,0.0,2.7,36,0.00,,---,0.00,cosweather0.1e,2013-01-03 22:13:00,
2013-01-03 14:18:00,63.3,35.6,30.08,NW,308,0.0,3.1,36,0.00,,---,0.00,cosweather0.1e,2013-01-03 22:18:00,
2013-01-03 14:23:00,63.7,37.4,30.08,SSW,204,0.0,4.0,36,0.00,,---,0.00,cosweather0.1e,2013-01-03 22:23:00,
2013-01-03 14:28:00,63.9,37.4,30.08,WNW,285,0.0,2.2,36,0.00,,---,0.00,cosweather0.1e,2013-01-03 22:28:00,
2013-01-03 14:33:00,64.2,37.4,30.08,West,268,0.0,3.6,37,0.00,,---,0.00,cosweather0.1e,2013-01-03 22:33:00,
2013-01-03 14:39:00,64.2,37.4,30.08,WNW,288,0.0,0.0,37,0.00,,---,0.00,cosweather0.1e,2013-01-03 22:39:00,
2013-01-03 14:44:00,64.2,37.4,30.08,West,265,0.0,0.0,37,0.00,,---,0.00,cosweather0.1e,2013-01-03 22:44:00,
2013-01-03 14:49:00,64.4,37.4,30.08,NW,305,0.0,0.0,36,0.00,,---,0.00,cosweather0.1e,2013-01-03 22:49:00,
2013-01-03 14:54:00,64.2,37.4,30.08,West,277,0.0,2.2,37,0.00,,---,0.00,cosweather0.1e,2013-01-03 22:54:00,
2013-01-03 14:59:00,64.4,37.4,30.08,West,266,0.0,4.9,37,0.00,,---,0.00,cosweather0.1e,2013-01-03 22:59:00,
2013-01-03 15:04:00,64.2,37.4,30.08,West,262,0.0,2.7,37,0.00,,---,0.00,cosweather0.1e,2013-01-03 23:04:00,
2013-01-03 15:09:00,63.9,37.4,30.08,WNW,294,0.0,2.2,37,0.00,,---,0.00,cosweather0.1e,2013-01-03 23:09:00,
2013-01-03 15:14:00,63.5,39.2,30.08,WSW,241,0.0,3.6,38,0.00,,---,0.00,cosweather0.1e,2013-01-03 23:14:00,
2013-01-03 15:19:00,63.3,37.4,30.08,NW,320,0.0,2.2,38,0.00,,---,0.00,cosweather0.1e,2013-01-03 23:19:00,
2013-01-03 15:24:00,63.3,37.4,30.08,NW,326,0.0,3.6,39,0.00,,---,0.00,cosweather0.1e,2013-01-03 23:24:00,
2013-01-03 15:29:00,63.3,37.4,30.08,WNW,291,0.0,3.6,39,0.00,,---,0.00,cosweather0.1e,2013-01-03 23:29:00,
2013-01-03 15:34:00,63.5,39.2,30.08,NW,312,0.0,4.0,39,0.00,,---,0.00,cosweather0.1e,2013-01-03 23:34:00,
2013-01-03 15:39:00,63.5,39.2,30.08,WNW,301,0.0,4.0,39,0.00,,---,0.00,cosweather0.1e,2013-01-03 23:39:00,
2013-01-03 15:44:00,63.1,37.4,30.08,NW,326,0.0,2.2,39,0.00,,---,0.00,cosweather0.1e,2013-01-03 23:44:00,
2013-01-03 15:49:00,62.8,37.4,30.08,NNW,329,0.0,0.0,39,0.00,,---,0.00,cosweather0.1e,2013-01-03 23:49:00,
2013-01-03 15:54:00,62.6,37.4,30.08,WNW,297,0.0,3.6,40,0.00,,---,0.00,cosweather0.1e,2013-01-03 23:54:00,
2013-01-03 15:59:00,62.6,37.4,30.12,WNW,298,0.0,3.6,40,0.00,,---,0.00,cosweather0.1e,2013-01-03 23:59:00,
2013-01-03 16:04:00,62.2,39.2,30.12,NW,324,0.0,2.7,41,0.00,,---,0.00,cosweather0.1e,2013-01-04 00:04:00,
2013-01-03 16:09:00,61.7,39.2,30.12,NW,317,0.0,2.7,41,0.00,,---,0.00,cosweather0.1e,2013-01-04 00:09:00,
2013-01-03 16:14:00,61.3,37.4,30.08,North,349,0.0,0.0,41,0.00,,---,0.00,cosweather0.1e,2013-01-04 00:14:00,
2013-01-03 16:19:00,61.0,37.4,30.08,NW,320,0.0,3.6,41,0.00,,---,0.00,cosweather0.1e,2013-01-04 00:19:00,
2013-01-03 16:24:00,60.6,37.4,30.08,NW,325,0.0,0.0,42,0.00,,---,0.00,cosweather0.1e,2013-01-04 00:24:00,
2013-01-03 16:29:00,60.3,37.4,30.12,NNW,342,0.0,3.6,42,0.00,,---,0.00,cosweather0.1e,2013-01-04 00:29:00,
2013-01-03 16:34:00,59.9,37.4,30.12,NW,321,0.0,3.1,42,0.00,,---,0.00,cosweather0.1e,2013-01-04 00:34:00,
2013-01-03 16:39:00,59.7,37.4,30.12,NNW,333,0.0,2.7,43,0.00,,---,0.00,cosweather0.1e,2013-01-04 00:39:00,
2013-01-03 16:44:00,59.4,37.4,30.12,NNW,335,0.0,3.1,43,0.00,,---,0.00,cosweather0.1e,2013-01-04 00:44:00,
2013-01-03 16:49:00,59.0,37.4,30.12,NNW,341,0.0,2.7,44,0.00,,---,0.00,cosweather0.1e,2013-01-04 00:49:00,
2013-01-03 16:54:00,58.6,37.4,30.12,North,350,0.0,4.0,45,0.00,,---,0.00,cosweather0.1e,2013-01-04 00:54:00,
2013-01-03 16:59:00,58.3,37.4,30.12,North,353,0.0,3.1,45,0.00,,---,0.00,cosweather0.1e,2013-01-04 00:59:00,
2013-01-03 17:04:00,58.1,37.4,30.12,NNE,14,0.0,2.7,45,0.00,,---,0.00,cosweather0.1e,2013-01-04 01:04:00,
2013-01-03 17:09:00,57.7,35.6,30.12,NNE,23,0.0,0.0,45,0.00,,---,0.00,cosweather0.1e,2013-01-04 01:09:00,
2013-01-03 17:14:00,57.7,35.6,30.12,NNW,331,0.0,4.0,45,0.00,,---,0.00,cosweather0.1e,2013-01-04 01:14:00,
2013-01-03 17:19:00,57.6,35.6,30.12,NNE,23,0.0,0.0,45,0.00,,---,0.00,cosweather0.1e,2013-01-04 01:19:00,
2013-01-03 17:24:00,57.4,35.6,30.12,NNE,31,0.0,0.0,45,0.00,,---,0.00,cosweather0.1e,2013-01-04 01:24:00,
2013-01-03 17:29:00,57.2,35.6,30.12,NNE,31,0.0,0.0,45,0.00,,---,0.00,cosweather0.1e,2013-01-04 01:29:00,
2013-01-03 17:34:00,57.2,35.6,30.12,NNE,31,0.0,0.0,45,0.00,,---,0.00,cosweather0.1e,2013-01-04 01:34:00,
2013-01-03 17:39:00,57.0,37.4,30.12,NNE,31,0.0,0.0,46,0.00,,---,0.00,cosweather0.1e,2013-01-04 01:39:00,
2013-01-03 17:44:00,57.0,37.4,30.12,NNE,30,0.0,0.0,46,0.00,,---,0.00,cosweather0.1e,2013-01-04 01:44:00,
2013-01-03 17:49:00,57.0,37.4,30.12,NNE,31,0.0,0.0,46,0.00,,---,0.00,cosweather0.1e,2013-01-04 01:49:00,
2013-01-03 17:54:00,56.7,37.4,30.12,NNE,31,0.0,0.0,46,0.00,,---,0.00,cosweather0.1e,2013-01-04 01:54:00,
2013-01-03 17:59:00,56.7,37.4,30.12,NNE,30,0.0,0.0,47,0.00,,---,0.00,cosweather0.1e,2013-01-04 01:59:00,
2013-01-03 18:04:00,56.3,37.4,30.12,NNE,31,0.0,0.0,47,0.00,,---,0.00,cosweather0.1e,2013-01-04 02:04:00,
2013-01-03 18:09:00,56.1,35.6,30.12,NNE,31,0.0,0.0,47,0.00,,---,0.00,cosweather0.1e,2013-01-04 02:09:00,
2013-01-03 18:14:00,56.1,35.6,30.12,NNE,31,0.0,0.0,47,0.00,,---,0.00,cosweather0.1e,2013-01-04 02:14:00,
2013-01-03 18:19:00,55.9,35.6,30.12,NNE,30,0.0,0.0,47,0.00,,---,0.00,cosweather0.1e,2013-01-04 02:19:00,
2013-01-03 18:24:00,55.9,35.6,30.12,NNE,30,0.0,0.0,47,0.00,,---,0.00,cosweather0.1e,2013-01-04 02:24:00,
2013-01-03 18:29:00,55.8,35.6,30.16,NNE,30,0.0,0.0,47,0.00,,---,0.00,cosweather0.1e,2013-01-04 02:29:00,
2013-01-03 18:34:00,55.4,35.6,30.16,NE,37,0.0,0.0,48,0.00,,---,0.00,cosweather0.1e,2013-01-04 02:34:00,
2013-01-03 18:39:00,55.2,37.4,30.16,NE,37,0.0,0.0,49,0.00,,---,0.00,cosweather0.1e,2013-01-04 02:39:00,
2013-01-03 18:44:00,55.0,37.4,30.16,NE,37,0.0,0.0,49,0.00,,---,0.00,cosweather0.1e,2013-01-04 02:44:00,
2013-01-03 18:49:00,54.9,37.4,30.16,NE,37,0.0,0.0,49,0.00,,---,0.00,cosweather0.1e,2013-01-04 02:49:00,
2013-01-03 18:55:00,54.9,37.4,30.16,NE,37,0.0,0.0,49,0.00,,---,0.00,cosweather0.1e,2013-01-04 02:55:00,
2013-01-03 19:00:00,54.7,37.4,30.16,NE,37,0.0,0.0,49,0.00,,---,0.00,cosweather0.1e,2013-01-04 03:00:00,
2013-01-03 19:05:00,54.5,37.4,30.16,NE,37,0.0,0.0,49,0.00,,---,0.00,cosweather0.1e,2013-01-04 03:05:00,
2013-01-03 19:10:00,54.1,35.6,30.16,NE,36,0.0,0.0,49,0.00,,---,0.00,cosweather0.1e,2013-01-04 03:10:00,
2013-01-03 19:15:00,53.8,35.6,30.16,NE,36,0.0,2.7,49,0.00,,---,0.00,cosweather0.1e,2013-01-04 03:15:00,
2013-01-03 19:20:00,53.2,35.6,30.16,NNE,22,0.0,2.7,50,0.00,,---,0.00,cosweather0.1e,2013-01-04 03:20:00,
2013-01-03 19:25:00,52.7,35.6,30.16,NNE,16,0.0,2.7,51,0.00,,---,0.00,cosweather0.1e,2013-01-04 03:25:00,
2013-01-03 19:30:00,52.7,35.6,30.16,North,10,0.0,2.7,51,0.00,,---,0.00,cosweather0.1e,2013-01-04 03:30:00,
2013-01-03 19:35:00,52.9,37.4,30.16,North,4,0.0,0.0,52,0.00,,---,0.00,cosweather0.1e,2013-01-04 03:35:00,
2013-01-03 19:40:00,53.1,37.4,30.16,North,4,0.0,0.0,52,0.00,,---,0.00,cosweather0.1e,2013-01-04 03:40:00,
2013-01-03 19:45:00,53.1,35.6,30.16,North,4,0.0,0.0,51,0.00,,---,0.00,cosweather0.1e,2013-01-04 03:45:00,
2013-01-03 19:50:00,53.1,35.6,30.16,North,4,0.0,0.0,51,0.00,,---,0.00,cosweather0.1e,2013-01-04 03:50:00,
2013-01-03 19:55:00,53.1,35.6,30.16,North,4,0.0,0.0,51,0.00,,---,0.00,cosweather0.1e,2013-01-04 03:55:00,
2013-01-03 20:00:00,52.9,35.6,30.16,North,4,0.0,0.0,51,0.00,,---,0.00,cosweather0.1e,2013-01-04 04:00:00,
2013-01-03 20:05:00,52.7,35.6,30.16,North,4,0.0,0.0,51,0.00,,---,0.00,cosweather0.1e,2013-01-04 04:05:00,
2013-01-03 20:10:00,52.5,33.8,30.16,North,4,0.0,0.0,51,0.00,,---,0.00,cosweather0.1e,2013-01-04 04:10:00,
2013-01-03 20:15:00,52.5,33.8,30.16,North,4,0.0,0.0,51,0.00,,---,0.00,cosweather0.1e,2013-01-04 04:15:00,
2013-01-03 20:20:00,52.3,33.8,30.16,North,4,0.0,0.0,51,0.00,,---,0.00,cosweather0.1e,2013-01-04 04:20:00,
2013-01-03 20:25:00,52.2,33.8,30.16,North,4,0.0,0.0,51,0.00,,---,0.00,cosweather0.1e,2013-01-04 04:25:00,
2013-01-03 20:30:00,52.0,35.6,30.16,North,4,0.0,0.0,52,0.00,,---,0.00,cosweather0.1e,2013-01-04 04:30:00,
2013-01-03 20:35:00,52.0,35.6,30.16,North,4,0.0,0.0,52,0.00,,---,0.00,cosweather0.1e,2013-01-04 04:35:00,
2013-01-03 20:40:00,51.6,35.6,30.16,North,4,0.0,0.0,52,0.00,,---,0.00,cosweather0.1e,2013-01-04 04:40:00,
2013-01-03 20:45:00,51.4,35.6,30.16,North,4,0.0,0.0,52,0.00,,---,0.00,cosweather0.1e,2013-01-04 04:45:00,
2013-01-03 20:50:00,51.3,35.6,30.16,North,4,0.0,0.0,52,0.00,,---,0.00,cosweather0.1e,2013-01-04 04:50:00,
2013-01-03 20:55:00,51.1,35.6,30.16,North,4,0.0,0.0,53,0.00,,---,0.00,cosweather0.1e,2013-01-04 04:55:00,
2013-01-03 21:00:00,50.9,35.6,30.16,North,4,0.0,0.0,53,0.00,,---,0.00,cosweather0.1e,2013-01-04 05:00:00,
2013-01-03 21:02:00,50.9,35.6,30.16,North,4,0.0,0.0,53,0.00,,---,0.00,cosweather0.1e,2013-01-04 05:02:00,
2013-01-03 21:03:00,50.9,35.6,30.16,North,4,0.0,0.0,53,0.00,,---,0.00,cosweather0.1e,2013-01-04 05:03:00,
2013-01-03 21:08:00,50.7,33.8,30.16,NNE,13,0.0,2.7,53,0.00,,---,0.00,cosweather0.1e,2013-01-04 05:08:00,
2013-01-03 21:13:00,50.5,33.8,30.16,NNE,14,0.0,0.0,54,0.00,,---,0.00,cosweather0.1e,2013-01-04 05:13:00,
2013-01-03 21:18:00,50.4,33.8,30.16,NNE,14,0.0,0.0,54,0.00,,---,0.00,cosweather0.1e,2013-01-04 05:18:00,
2013-01-03 21:23:00,50.2,33.8,30.16,NNE,14,0.0,0.0,54,0.00,,---,0.00,cosweather0.1e,2013-01-04 05:23:00,
2013-01-03 21:28:00,50.2,33.8,30.16,NNE,14,0.0,0.0,54,0.00,,---,0.00,cosweather0.1e,2013-01-04 05:28:00,
2013-01-03 21:34:00,50.2,33.8,30.16,NNE,14,0.0,0.0,54,0.00,,---,0.00,cosweather0.1e,2013-01-04 05:34:00,
2013-01-03 21:39:00,50.4,33.8,30.16,NNE,13,0.0,0.0,54,0.00,,---,0.00,cosweather0.1e,2013-01-04 05:39:00,
2013-01-03 21:44:00,50.4,33.8,30.16,NNE,14,0.0,0.0,54,0.00,,---,0.00,cosweather0.1e,2013-01-04 05:44:00,
2013-01-03 21:49:00,50.2,33.8,30.16,NNE,14,0.0,0.0,54,0.00,,---,0.00,cosweather0.1e,2013-01-04 05:49:00,
2013-01-03 21:54:00,50.2,33.8,30.16,NNE,13,0.0,0.0,55,0.00,,---,0.00,cosweather0.1e,2013-01-04 05:54:00,
2013-01-03 21:59:00,50.0,33.8,30.16,NNE,14,0.0,0.0,55,0.00,,---,0.00,cosweather0.1e,2013-01-04 05:59:00,
2013-01-03 22:04:00,50.0,33.8,30.16,NNE,14,0.0,0.0,55,0.00,,---,0.00,cosweather0.1e,2013-01-04 06:04:00,
2013-01-03 22:09:00,49.8,35.6,30.16,NNE,14,0.0,0.0,56,0.00,,---,0.00,cosweather0.1e,2013-01-04 06:09:00,
2013-01-03 22:14:00,49.8,35.6,30.16,NNE,14,0.0,0.0,56,0.00,,---,0.00,cosweather0.1e,2013-01-04 06:14:00,
2013-01-03 22:19:00,49.8,35.6,30.16,NNE,14,0.0,0.0,56,0.00,,---,0.00,cosweather0.1e,2013-01-04 06:19:00,
2013-01-03 22:24:00,49.6,35.6,30.16,NNE,14,0.0,0.0,56,0.00,,---,0.00,cosweather0.1e,2013-01-04 06:24:00,
2013-01-03 22:29:00,49.5,35.6,30.20,NNE,14,0.0,0.0,56,0.00,,---,0.00,cosweather0.1e,2013-01-04 06:29:00,
2013-01-03 22:34:00,49.3,35.6,30.20,NNE,13,0.0,0.0,56,0.00,,---,0.00,cosweather0.1e,2013-01-04 06:34:00,
2013-01-03 22:39:00,49.1,35.6,30.20,NNE,28,0.0,0.0,56,0.00,,---,0.00,cosweather0.1e,2013-01-04 06:39:00,
2013-01-03 22:44:00,48.9,33.8,30.20,NNE,28,0.0,0.0,57,0.00,,---,0.00,cosweather0.1e,2013-01-04 06:44:00,
2013-01-03 22:49:00,49.1,35.6,30.20,NNE,28,0.0,0.0,57,0.00,,---,0.00,cosweather0.1e,2013-01-04 06:49:00,
2013-01-03 22:54:00,48.9,33.8,30.20,NNE,29,0.0,0.0,57,0.00,,---,0.00,cosweather0.1e,2013-01-04 06:54:00,
2013-01-03 22:59:00,48.7,33.8,30.20,NNE,30,0.0,0.0,58,0.00,,---,0.00,cosweather0.1e,2013-01-04 06:59:00,
2013-01-03 23:04:00,48.7,33.8,30.20,NNE,30,0.0,0.0,58,0.00,,---,0.00,cosweather0.1e,2013-01-04 07:04:00,
2013-01-03 23:09:00,48.7,33.8,30.20,NE,37,0.0,2.7,59,0.00,,---,0.00,cosweather0.1e,2013-01-04 07:09:00,
2013-01-03 23:14:00,48.2,35.6,30.20,NE,35,0.0,3.1,60,0.00,,---,0.00,cosweather0.1e,2013-01-04 07:14:00,
2013-01-03 23:19:00,48.2,35.6,30.20,NE,35,0.0,0.0,61,0.00,,---,0.00,cosweather0.1e,2013-01-04 07:19:00,
2013-01-03 23:24:00,48.4,35.6,30.20,NE,34,0.0,0.0,61,0.00,,---,0.00,cosweather0.1e,2013-01-04 07:24:00,
2013-01-03 23:29:00,48.6,35.6,30.16,NE,35,0.0,0.0,61,0.00,,---,0.00,cosweather0.1e,2013-01-04 07:29:00,
2013-01-03 23:34:00,48.6,35.6,30.16,NE,35,0.0,0.0,60,0.00,,---,0.00,cosweather0.1e,2013-01-04 07:34:00,
2013-01-03 23:39:00,48.6,35.6,30.16,NE,35,0.0,0.0,60,0.00,,---,0.00,cosweather0.1e,2013-01-04 07:39:00,
2013-01-03 23:44:00,48.6,35.6,30.16,NE,35,0.0,0.0,60,0.00,,---,0.00,cosweather0.1e,2013-01-04 07:44:00,
2013-01-03 23:49:00,48.4,33.8,30.16,NE,35,0.0,0.0,59,0.00,,---,0.00,cosweather0.1e,2013-01-04 07:49:00,
2013-01-03 23:54:00,48.4,33.8,30.16,NE,35,0.0,0.0,59,0.00,,---,0.00,cosweather0.1e,2013-01-04 07:54:00,
2013-01-03 23:59:00,48.4,33.8,30.16,NE,35,0.0,0.0,59,0.00,,---,0.00,cosweather0.1e,2013-01-04 07:59:00,